Weather History for KBLH - July, 2012

Change the Weather History Date:

Wednesday, July 11, 2012

  Actual Average Record
Temperature  
Mean Temperature 100 °F -  
Max Temperature 109 °F 106 °F 116 °F (1975)
Min Temperature 91 °F 79 °F 69 °F (1974)
Cooling Degree Days 34    
Growing Degree Days 50 (Base 50)    
Moisture  
Dew Point 58 °F    
Average Humidity 25    
Maximum Humidity 33    
Minimum Humidity 19    
Precipitation  
Precipitation 0.00 in - - ()
Sea Level Pressure  
Sea Level Pressure 29.71 in    
Wind  
Wind Speed 11 mph (South)    
Max Wind Speed 17 mph    
Max Gust Speed 18 mph    
Visibility 10 miles    
Events      
Averages and records for this station are not official NWS values.
T = Trace of Precipitation, MM = Missing Value Source: NWS Daily Summary

Daily Weather History Graph

Daily Weather History Graph

Search for Another Location

Airport or City:

Trip Planner

Search our weather history database for the weather conditions in past years. The results will help you decide how hot, cold, wet, or windy it might be!

Date:

Astronomy

Jul. 11, 2012 Rise Set
Actual Time 5:37 AM PDT 7:51 PM PDT
Civil Twilight 5:09 AM PDT 8:19 PM PDT
Nautical Twilight 4:34 AM PDT 8:54 PM PDT
Astronomical Twilight 3:56 AM PDT 9:31 PM PDT
Moon 12:04 AM PDT (7/11) 1:37 PM PDT (7/11)
Length of Visible Light 15h 10m
Length of Day
14h 13m
Last Quarter, 43% of the Moon is Illuminated
Jul 11
Last Quarter
Jul 18
New
Jul 26
First Quarter
Aug 1
Full
Aug 9
Last Quarter

Hourly Weather History & Observations

Time (PDT) Temp. Heat Index Dew Point Humidity Pressure Visibility Wind Dir Wind Speed Gust Speed Precip Events Conditions
12:52 AM 95.0 °F 93.7 °F 57.0 °F 28% 29.64 in 10.0 mi SSE 10.4 mph - N/A   Clear
1:52 AM 97.0 °F 94.6 °F 53.1 °F 23% 29.64 in 10.0 mi South 10.4 mph - N/A   Clear
2:52 AM 96.1 °F 93.8 °F 54.0 °F 24% 29.65 in 10.0 mi South 9.2 mph - N/A   Clear
3:52 AM 91.0 °F 89.7 °F 57.0 °F 32% 29.67 in 10.0 mi ESE 5.8 mph - N/A   Clear
4:52 AM 93.0 °F 91.1 °F 55.0 °F 28% 29.70 in 10.0 mi South 9.2 mph - N/A   Clear
6:52 AM 95.0 °F 93.0 °F 55.0 °F 26% 29.75 in 10.0 mi South 9.2 mph - N/A   Clear
7:52 AM 96.1 °F 94.5 °F 55.9 °F 26% 29.78 in 10.0 mi South 11.5 mph - N/A   Clear
8:52 AM 99.0 °F 98.1 °F 57.0 °F 25% 29.79 in 10.0 mi South 15.0 mph - N/A   Clear
9:52 AM 100.9 °F 100.0 °F 57.0 °F 23% 29.79 in 10.0 mi South 17.3 mph - N/A   Clear
10:52 AM 102.0 °F 103.3 °F 61.0 °F 26% 29.78 in 10.0 mi SSE 16.1 mph - N/A   Clear
11:52 AM 102.9 °F 105.5 °F 63.0 °F 27% 29.77 in 10.0 mi SSE 16.1 mph - N/A   Clear
12:52 PM 102.9 °F 104.2 °F 61.0 °F 25% 29.75 in 9.0 mi South 16.1 mph - N/A   Scattered Clouds
1:17 PM 104.0 °F 105.3 °F 60.8 °F 24% 29.76 in 8.0 mi South 12.7 mph - N/A   Overcast
1:26 PM 104.0 °F 105.3 °F 60.8 °F 24% 29.76 in 10.0 mi South 13.8 mph - N/A   Mostly Cloudy
1:52 PM 104.0 °F 106.6 °F 63.0 °F 26% 29.73 in 10.0 mi South 13.8 mph - N/A   Partly Cloudy
2:52 PM 107.1 °F 106.7 °F 55.9 °F 19% 29.70 in 10.0 mi SE 10.4 mph 18.4 mph N/A   Clear
3:52 PM 108.0 °F 108.0 °F 57.0 °F 19% 29.67 in 10.0 mi South 11.5 mph - N/A   Clear
5:52 PM 108.0 °F 108.0 °F 57.0 °F 19% 29.64 in 10.0 mi SE 6.9 mph - N/A   Clear
6:52 PM 108.0 °F 108.0 °F 57.0 °F 19% 29.63 in 10.0 mi South 10.4 mph - N/A   Clear
8:52 PM 105.1 °F 104.4 °F 57.0 °F 20% 29.65 in 10.0 mi WSW 9.2 mph - N/A   Clear
9:52 PM 102.0 °F 103.3 °F 61.0 °F 26% 29.67 in 10.0 mi SSW 12.7 mph - N/A   Clear
10:52 PM 98.1 °F 99.6 °F 63.0 °F 31% 29.68 in 10.0 mi SSW 13.8 mph - N/A   Clear
11:52 PM 95.0 °F 95.6 °F 62.1 °F 33% 29.68 in 10.0 mi South 11.5 mph - N/A   Clear